Probability
0 0 0 0 0 0 0 0 0 0 0 0 0 0 0 0 0 0 0 0 0 0 0 0 0 0 0 0 0 0 0 0 0 0 0 0 0 0 0 0 0 0 0
0 0 0 0 0 0 0 0 0 0 0 0 0 0 0 0 0 0 0 0 0 0 0 0 0 0 0 0 0 0 0 0 0 0 0 0 0 0 0 0 0 0 0
0 0 0 0 0 0 0 0 0 0 0 0 0 0 0 0 0 0 0 0 0 0 0 0 0 0 0 0 0 0 0 0 0 0 0 0 0 0 0 0 0 0 0
0 0 0 0 0 0 0 0 0 0 0 0 0 0 0 0 0 0 0 0 0 0 0 0 0 0 0 0 0 0 0 0 0 0 0 0 0 0 0 0 0 0 0
0 0 0 0 0 0 0 0 0 0 0 0 0 0 0 0 0 0 0 0 0 0 0 0 0 0 0 0 0 0 0 0 0 0 0 0 0 0 0 0 0 0 0
0 0 0 0 0 0 0 0 0 0 0 0 0 0 0 0 0 0 0 0 0 0 0 0 0 0 0 0 0 0 0 0 0 0 0 0 0 0 0 0 0 0 0
0 0 0 0 0 0 0 0 0 0 0 0 0 0 0 0 0 0 0 0 0 0 0 0 0 0 0 0 0 0 0 0 0 0 0 2 7 11 7 2 1 0 0
1 0 0 0 0 0 0 0 0 0 0 0 0 0 0 0 0 0 0 0 0 0 0 0 0 0 0 0 0 0 0 0 0 0 0 9 28 40 31 15 5 1 0
6 3 1 0 0 0 0 0 0 0 0 0 0 0 0 0 0 0 0 0 0 0 0 0 0 0 0 0 0 0 0 0 0 0 0 18 54 73 62 38 16 4 0
13 9 3 1 1 0 0 0 0 0 0 0 0 0 0 0 2 5 6 5 5 5 4 5 4 3 4 7 9 9 7 4 1 0 0 24 67 91 82 60 33 12 3
16 13 8 9 10 4 4 6 4 0 0 0 2 5 5 2 3 12 22 29 32 31 31 30 26 22 19 20 27 35 32 19 6 0 4 31 74 96 91 75 49 24 11
16 14 15 29 32 16 18 27 15 8 16 15 12 22 32 24 12 18 42 62 70 70 67 62 56 51 44 37 43 61 62 38 13 3 13 46 84 98 94 84 62 36 21
20 15 23 52 61 40 41 54 38 31 48 49 39 50 68 64 40 35 60 85 92 90 82 73 70 69 61 53 54 70 75 52 29 22 36 68 92 98 97 90 71 43 27
32 22 33 69 84 71 64 68 61 54 65 74 73 77 88 87 69 62 74 86 86 86 81 73 71 72 69 63 63 69 72 62 52 54 69 86 96 98 99 94 75 48 30
50 40 51 81 96 90 79 72 65 60 65 78 85 88 90 88 79 72 75 74 70 72 75 75 75 75 73 69 66 66 66 66 68 76 87 93 96 97 98 94 80 57 40
73 69 76 91 99 97 88 78 68 63 67 76 84 85 85 84 78 68 65 64 61 63 68 72 76 77 75 73 70 66 64 64 67 75 83 89 91 93 96 95 87 70 57
93 92 94 97 100 99 95 90 81 71 72 79 79 77 74 75 71 60 54 55 58 58 58 63 69 73 75 77 79 77 72 68 65 67 72 78 84 89 93 94 90 81 76
100 100 99 99 99 100 98 94 85 77 77 75 66 63 62 57 49 40 34 37 42 41 39 43 54 64 70 75 81 81 79 76 71 66 64 68 76 83 89 91 90 87 85
99 99 98 98 99 99 97 90 80 76 72 58 45 49 49 35 24 19 14 15 18 18 18 21 33 48 56 58 58 62 71 76 76 72 68 66 71 78 83 87 89 88 87
97 97 98 99 100 99 95 87 79 73 58 37 32 40 35 20 11 8 5 3 5 7 7 8 15 26 33 32 28 32 46 59 69 73 73 71 71 75 78 82 86 88 87
86 90 94 96 96 94 89 85 82 70 46 28 27 32 27 14 9 6 3 1 2 3 3 3 4 8 11 13 13 15 20 33 48 61 71 76 75 73 74 78 83 87 88
66 71 79 85 86 84 82 81 78 65 43 28 30 36 34 25 15 8 4 3 2 1 1 1 1 1 2 5 9 9 8 13 24 36 53 70 76 77 75 74 78 82 85
47 53 62 71 76 78 80 79 72 63 50 39 42 50 52 42 26 14 7 5 3 1 0 0 1 1 1 2 4 7 6 6 8 15 28 46 66 78 79 74 71 75 80
43 48 56 64 71 77 83 82 76 69 61 55 58 66 65 50 33 22 14 10 6 2 1 1 2 3 2 1 2 4 5 4 3 4 10 22 43 66 76 76 71 72 78
37 43 52 60 68 77 84 85 79 72 68 67 71 76 71 56 43 35 30 25 16 8 4 4 5 6 4 2 2 2 3 2 1 1 2 8 23 46 65 76 78 78 78
27 35 45 55 66 76 83 83 78 73 71 73 77 80 75 64 55 48 45 41 29 13 6 5 7 7 6 5 4 3 2 1 0 0 0 2 12 32 54 72 82 83 83
Wind_Speed
19 19 19 15 14 14 15 16 15 14 13 12 11 11 10 11 11 11 11 11 11 10 10 10 10 10 9 9 9 9 9 9 8 9 9 10 10 9 8 7 5 10 12
21 19 19 16 15 15 15 15 15 14 13 12 11 10 10 10 10 10 10 9 9 9 9 9 9 9 9 8 8 7 7 6 5 6 7 9 9 8 7 8 9 9 11
21 19 18 16 15 15 15 15 14 14 13 12 11 10 9 9 9 9 9 8 8 8 8 7 7 7 7 7 6 6 5 3 2 3 5 6 9 9 7 8 9 9 9
21 18 17 17 16 15 15 14 14 14 13 12 11 10 9 9 8 8 8 7 7 7 6 6 6 6 6 5 5 4 3 2 3 5 6 6 8 11 9 7 7 7 7
19 17 18 19 17 16 15 14 14 13 13 12 11 10 9 8 8 7 7 6 6 6 5 5 5 5 5 4 3 3 3 3 6 8 8 3 8 12 10 8 6 6 5
18 18 19 19 17 16 15 14 13 13 12 12 11 10 9 8 7 7 6 6 5 5 5 5 5 5 5 5 4 4 5 6 7 8 7 3 9 12 12 9 7 6 6
18 17 18 18 17 15 14 13 13 12 11 10 10 9 8 8 7 7 7 6 6 6 6 6 6 6 6 7 7 7 7 8 8 9 7 3 9 15 14 11 9 8 8
19 18 17 18 17 15 14 13 12 12 11 10 9 9 8 8 8 8 8 8 8 8 8 8 8 8 8 9 9 9 10 11 10 10 9 4 13 16 15 13 11 10 11
20 18 16 15 14 15 14 14 13 12 11 11 10 10 10 9 9 10 10 10 10 10 10 10 10 10 10 10 11 11 12 13 10 8 10 4 15 17 16 15 13 11 12
20 18 16 15 14 13 12 14 14 13 12 12 11 11 11 11 12 13 12 13 13 13 12 12 12 12 12 12 13 14 14 13 11 11 9 6 18 18 17 15 14 13 12
17 17 16 17 14 13 13 14 14 13 13 12 11 13 11 9 11 12 17 16 17 16 15 14 14 14 13 14 16 17 14 8 11 10 9 10 18 19 17 15 14 14 13
13 16 14 16 15 13 12 12 10 10 11 10 9 11 10 8 7 9 10 18 19 19 17 16 16 14 13 10 14 18 9 12 12 9 8 11 18 19 17 16 15 14 14
10 11 14 13 13 11 6 10 7 7 8 11 11 8 7 5 5 7 3 7 11 13 10 11 13 10 10 9 8 7 11 11 8 8 6 14 18 18 17 16 15 15 15
11 10 11 12 11 6 4 5 5 4 5 6 8 9 6 4 4 3 3 1 3 4 5 5 5 9 9 9 8 7 10 8 7 5 4 15 17 17 17 17 16 16 16
12 11 8 9 10 6 3 1 3 2 2 2 2 2 2 2 2 2 2 2 4 3 3 3 3 4 4 5 5 6 6 7 7 6 4 15 17 17 17 18 17 17 17
14 13 10 10 10 8 5 3 1 1 1 1 2 2 2 1 1 1 3 3 3 4 3 3 5 4 4 4 6 7 7 7 6 5 4 8 16 18 19 18 18 18 19
14 12 11 11 12 9 8 7 5 4 3 2 2 3 3 2 2 2 3 4 3 3 3 4 5 5 6 6 7 7 7 7 8 7 6 5 8 18 20 19 19 19 20
15 12 11 12 13 10 6 5 4 4 3 3 3 4 4 3 3 2 3 3 2 2 3 4 5 5 5 5 5 6 6 6 8 8 9 8 6 8 14 21 20 20 21
11 12 10 8 11 11 9 6 5 3 2 2 3 3 4 2 1 1 1 2 2 3 3 5 3 2 4 4 5 6 7 7 7 10 11 11 10 9 8 14 22 22 22
9 10 9 7 9 9 7 5 4 4 4 4 2 4 4 1 1 2 2 3 4 3 4 4 5 4 4 5 8 8 6 7 7 9 11 10 10 11 11 10 12 16 22
4 8 8 7 6 4 3 4 4 3 3 2 2 4 4 1 1 1 3 3 3 3 4 5 5 6 6 5 5 6 7 8 9 8 9 8 10 10 9 9 8 8 10
12 7 6 7 5 3 2 1 1 1 1 1 2 4 3 2 1 2 2 2 4 4 5 5 5 4 5 5 5 6 6 6 6 9 8 9 10 8 8 9 6 7 7
15 14 8 5 3 2 2 2 1 2 1 2 2 3 4 3 2 1 1 3 3 4 4 4 4 6 5 5 4 4 4 5 6 6 6 5 6 6 6 5 5 6 7
9 9 9 8 4 3 1 2 3 2 2 2 1 2 4 4 3 3 3 3 3 4 5 5 4 4 5 5 5 4 6 6 6 6 7 6 6 5 6 5 4 3 4
10 9 9 9 9 8 7 5 4 4 4 3 2 0 2 3 5 5 5 4 3 4 5 5 4 5 4 6 5 5 6 5 6 6 8 7 6 4 3 1 1 1 2
11 10 10 9 10 10 10 8 7 7 7 7 6 5 3 3 4 6 6 4 4 4 5 4 5 6 5 6 5 5 6 5 5 5 6 6 6 4 2 2 1 2 3
Wind_Direction
122 132 135 134 132 131 132 133 133 131 129 127 124 120 115 109 104 99 95 94 98 102 101 95 91 88 87 89 86 83 83 84 86 92 96 95 92 88 83 76 98 102 101
125 132 135 135 135 134 135 135 135 134 132 130 127 125 121 115 110 106 103 101 100 101 100 97 93 92 92 95 95 93 92 95 106 119 125 119 109 98 84 59 57 106 111
125 133 137 137 137 136 136 137 137 136 135 133 130 129 126 122 118 115 111 109 107 106 105 104 102 101 101 103 105 107 109 117 159 181 191 165 129 119 102 84 88 107 114
130 140 141 142 142 141 140 140 140 139 138 137 135 135 134 132 130 127 123 120 118 115 114 113 112 111 112 115 119 125 138 188 248 255 236 213 148 131 125 112 110 116 123
134 139 139 148 147 147 146 145 145 145 144 144 144 145 145 145 144 141 139 138 137 136 136 135 134 133 134 138 146 161 191 235 263 267 266 189 126 143 141 139 141 144 147
136 138 144 152 151 151 151 151 151 151 151 152 153 155 157 159 161 160 162 165 167 169 172 173 173 171 174 181 191 206 225 245 267 262 258 175 138 154 152 158 169 175 177
140 138 148 154 155 155 156 156 157 157 157 158 161 165 170 174 179 182 185 190 195 199 203 205 206 206 206 209 215 221 230 243 255 274 278 215 150 157 160 168 183 195 197
137 139 146 155 157 159 161 162 163 164 166 169 174 180 187 194 200 205 207 209 213 216 218 221 223 223 222 224 227 230 234 245 246 247 252 225 151 162 168 173 185 203 210
138 137 150 158 163 165 168 170 172 173 176 181 188 194 202 209 215 220 223 223 223 223 225 227 230 233 233 233 234 235 237 240 258 271 266 206 162 172 176 181 188 202 214
139 144 157 160 164 169 174 179 180 182 186 192 199 206 213 221 226 229 228 224 226 224 225 228 232 235 238 239 239 239 238 241 246 256 261 220 173 180 183 187 196 206 215
147 150 164 162 165 175 179 177 182 188 195 199 207 215 219 229 230 224 226 223 221 223 223 226 231 235 238 241 240 238 236 235 239 240 246 222 181 184 187 191 199 210 216
154 158 167 163 165 181 185 162 182 190 191 202 210 204 208 225 250 259 220 215 217 219 221 226 231 235 237 242 237 228 225 228 241 244 241 205 184 186 189 194 202 211 218
164 173 165 158 159 183 176 158 186 194 180 194 215 208 199 214 242 261 240 205 214 220 222 227 227 228 230 230 239 216 211 224 227 236 229 180 186 190 192 197 205 214 220
175 190 172 154 156 182 183 176 177 191 175 190 196 205 198 194 234 267 295 289 211 217 219 238 229 223 230 242 237 225 212 220 233 233 201 181 188 193 196 200 208 216 221
178 187 179 148 146 158 184 253 196 197 172 149 119 158 154 165 215 288 314 318 306 295 272 252 280 288 286 288 279 267 259 245 246 237 210 186 191 198 202 205 210 216 221
180 182 170 155 150 157 164 182 281 294 97 121 104 94 84 124 161 273 277 272 273 277 293 298 291 289 283 276 277 279 279 275 269 261 243 200 202 207 208 209 213 217 221
179 174 161 166 159 165 172 181 190 210 196 174 158 179 195 198 188 225 254 256 253 258 264 266 269 264 264 263 260 262 265 263 264 266 259 237 216 216 212 211 213 215 218
177 166 163 173 162 161 163 176 186 209 179 177 187 194 179 177 190 214 253 266 295 282 264 257 248 253 259 264 266 261 257 255 254 254 253 245 235 235 218 216 216 216 218
166 157 162 161 151 156 164 176 201 192 163 193 203 162 129 151 218 231 277 291 285 273 278 288 295 292 290 286 279 262 247 245 245 249 245 242 235 228 226 212 214 216 218
150 147 154 151 141 153 166 178 194 176 178 196 173 125 119 110 16 33 322 330 342 319 305 304 315 305 285 274 278 280 268 253 241 239 241 242 238 233 228 224 209 217 219
124 138 146 140 136 156 170 175 182 173 186 174 156 124 113 97 20 18 303 324 310 291 308 317 311 305 298 285 279 277 266 256 246 235 231 234 236 235 229 223 209 200 207
13 43 88 111 139 183 162 164 146 114 168 161 106 116 147 169 158 280 334 331 310 317 302 280 278 280 287 293 294 295 289 280 266 256 231 222 226 229 229 229 214 211 205
24 26 16 61 109 243 148 198 214 138 220 242 188 173 159 144 158 234 291 284 297 294 289 313 308 291 291 294 287 287 296 293 314 300 298 267 233 222 222 217 217 215 218
43 36 21 16 28 2 354 328 316 288 263 258 214 173 145 159 191 203 224 245 263 280 293 292 302 322 300 291 289 274 266 280 292 301 307 305 288 250 228 212 215 200 205
45 47 38 28 19 5 2 357 336 307 303 306 319 202 158 196 197 202 207 215 242 262 270 278 291 282 280 282 288 292 290 287 269 268 284 294 304 308 296 242 178 121 139
50 48 46 41 34 22 15 6 353 334 323 318 318 311 285 246 214 205 196 194 220 249 270 279 274 273 268 271 274 277 280 279 278 269 269 278 282 282 304 359 49 75 81